Weather History for Crookston, MN

Change the Weather History Date:

Thursday, July 4, 2013

  Actual Average Record
Temperature  
Mean Temperature 76 °F -  
Max Temperature 87 °F 73 °F 91 °F (2011)
Min Temperature 64 °F 54 °F 46 °F (2001)
Cooling Degree Days 10    
Growing Degree Days 26 (Base 50)    
Moisture  
Dew Point 60 °F    
Average Humidity 60    
Maximum Humidity 94    
Minimum Humidity 40    
Precipitation  
Precipitation 0.00 in - - ()
Sea Level Pressure  
Sea Level Pressure 29.76 in    
Wind  
Wind Speed 11 mph (South)    
Max Wind Speed 20 mph    
Max Gust Speed 25 mph    
Visibility 10 miles    
Events      
Averages and records for this station are not official NWS values.
T = Trace of Precipitation, MM = Missing Value Source: NWS Daily Summary

Daily Weather History Graph

Daily Weather History Graph

Search for Another Location

Airport:

Trip Planner

Search our weather history database for the weather conditions in past years. The results will help you decide how hot, cold, wet, or windy it might be!

Date:

Astronomy

Jul. 04, 2013 Rise Set
Actual Time 5:33 AM CDT 9:27 PM CDT
Civil Twilight 4:53 AM CDT 10:08 PM CDT
Nautical Twilight 3:57 AM CDT 11:03 PM CDT
Astronomical Twilight 2:31 AM CDT 12:28 AM CDT
Moon 2:58 AM CDT (7/4) 6:27 PM CDT (7/4)
Length of Visible Light 17h 14m
Length of Day
15h 53m
Waning Crescent, 11% of the Moon is Illuminated
Jul 4
Waning Crescent
Jul 8
New
Jul 15
First Quarter
Jul 22
Full
Jul 29
Last Quarter

Hourly Weather History & Observations

Time (CDT) Temp. Heat Index Dew Point Humidity Pressure Visibility Wind Dir Wind Speed Gust Speed Precip Events Conditions
12:14 AM 71.6 °F - 57.2 °F 60% 29.86 in 10.0 mi South 10.4 mph - N/A   Clear
12:35 AM 71.6 °F - 57.2 °F 60% 29.86 in 10.0 mi South 12.7 mph - N/A   Clear
12:54 AM 71.6 °F - 55.4 °F 57% 29.85 in 10.0 mi South 12.7 mph - N/A   Clear
1:14 AM 71.6 °F - 55.4 °F 57% 29.85 in 10.0 mi South 10.4 mph - N/A   Clear
1:35 AM 69.8 °F - 55.4 °F 60% 29.85 in 10.0 mi South 12.7 mph - N/A   Clear
1:54 AM 69.8 °F - 55.4 °F 60% 29.85 in 10.0 mi South 11.5 mph - N/A   Clear
2:14 AM 69.8 °F - 55.4 °F 60% 29.85 in 10.0 mi South 10.4 mph 16.1 mph N/A   Clear
2:35 AM 68.0 °F - 55.4 °F 64% 29.86 in 10.0 mi South 10.4 mph - N/A   Clear
2:54 AM 66.2 °F - 55.4 °F 68% 29.85 in 10.0 mi South 9.2 mph - N/A   Clear
3:14 AM 66.2 °F - 53.6 °F 64% 29.85 in 10.0 mi South 11.5 mph 17.3 mph N/A   Clear
3:35 AM 66.2 °F - 53.6 °F 64% 29.84 in 10.0 mi South 11.5 mph - N/A   Clear
3:54 AM 66.2 °F - 53.6 °F 64% 29.83 in 10.0 mi South 11.5 mph - N/A   Clear
4:15 AM 66.2 °F - 53.6 °F 64% 29.84 in 10.0 mi South 9.2 mph - N/A   Clear
4:35 AM 66.2 °F - 53.6 °F 64% 29.84 in 10.0 mi South 9.2 mph - N/A   Clear
4:54 AM 66.2 °F - 53.6 °F 64% 29.84 in 10.0 mi South 10.4 mph - N/A   Clear
5:15 AM 66.2 °F - 53.6 °F 64% 29.83 in 10.0 mi South 10.4 mph - N/A   Clear
5:35 AM 66.2 °F - 53.6 °F 64% 29.83 in 10.0 mi South 9.2 mph - N/A   Clear
5:54 AM 64.4 °F - 53.6 °F 68% 29.83 in 10.0 mi SSE 9.2 mph - N/A   Clear
6:15 AM 64.4 °F - 53.6 °F 68% 29.83 in 10.0 mi South 8.1 mph - N/A   Clear
6:35 AM 64.4 °F - 53.6 °F 68% 29.83 in 10.0 mi South 9.2 mph - N/A   Clear
6:54 AM 64.4 °F - 53.6 °F 68% 29.83 in 10.0 mi SSE 9.2 mph - N/A   Clear
7:15 AM 66.2 °F - 53.6 °F 64% 29.82 in 10.0 mi South 9.2 mph - N/A   Clear
7:35 AM 66.2 °F - 55.4 °F 68% 29.81 in 10.0 mi SSE 11.5 mph - N/A   Clear
7:54 AM 68.0 °F - 55.4 °F 64% 29.80 in 10.0 mi SSE 11.5 mph - N/A   Clear
8:15 AM 69.8 °F - 55.4 °F 60% 29.79 in 10.0 mi South 12.7 mph 16.1 mph N/A   Clear
8:35 AM 71.6 °F - 57.2 °F 60% 29.79 in 10.0 mi South 13.8 mph - N/A   Clear
8:54 AM 71.6 °F - 57.2 °F 60% 29.78 in 10.0 mi South 12.7 mph - N/A   Clear
9:15 AM 73.4 °F - 59.0 °F 61% 29.78 in 10.0 mi South 12.7 mph 20.7 mph N/A   Clear
9:35 AM 75.2 °F - 59.0 °F 57% 29.77 in 10.0 mi South 15.0 mph 19.6 mph N/A   Clear
9:54 AM 75.2 °F - 60.8 °F 61% 29.76 in 10.0 mi South 13.8 mph - N/A   Clear
10:15 AM 77.0 °F - 60.8 °F 57% 29.75 in 10.0 mi South 16.1 mph - N/A   Clear
10:35 AM 78.8 °F - 60.8 °F 54% 29.75 in 10.0 mi South 18.4 mph - N/A   Clear
10:54 AM 77.0 °F - 60.8 °F 57% 29.75 in 10.0 mi South 17.3 mph 20.7 mph N/A   Clear
11:15 AM 78.8 °F - 60.8 °F 54% 29.75 in 10.0 mi South 17.3 mph - N/A   Clear
11:34 AM 80.6 °F 81.8 °F 62.6 °F 54% 29.74 in 10.0 mi South 15.0 mph 21.9 mph N/A   Clear
11:55 AM 80.6 °F 81.8 °F 62.6 °F 54% 29.75 in 10.0 mi South 15.0 mph 19.6 mph N/A   Clear
12:15 PM 80.6 °F 81.8 °F 62.6 °F 54% 29.75 in 10.0 mi South 12.7 mph - N/A   Clear
12:34 PM 80.6 °F 81.8 °F 62.6 °F 54% 29.75 in 10.0 mi SSW 13.8 mph 17.3 mph N/A   Clear
12:55 PM 82.4 °F 83.4 °F 62.6 °F 51% 29.74 in 10.0 mi SSW 11.5 mph - N/A   Clear
1:14 PM 80.6 °F 81.8 °F 62.6 °F 54% 29.74 in 10.0 mi SSW 15.0 mph - N/A   Clear
1:34 PM 80.6 °F 81.8 °F 62.6 °F 54% 29.74 in 10.0 mi South 15.0 mph - N/A   Clear
1:55 PM 80.6 °F 81.8 °F 62.6 °F 54% 29.74 in 10.0 mi South 12.7 mph - N/A   Clear
2:15 PM 82.4 °F 83.9 °F 64.4 °F 54% 29.73 in 10.0 mi SSW 12.7 mph 16.1 mph N/A   Clear
2:34 PM 82.4 °F 83.4 °F 62.6 °F 51% 29.73 in 10.0 mi South 13.8 mph 19.6 mph N/A   Clear
2:54 PM 82.4 °F 83.9 °F 64.4 °F 54% 29.73 in 10.0 mi South 13.8 mph - N/A   Clear
3:15 PM 82.4 °F 83.9 °F 64.4 °F 54% 29.73 in 10.0 mi South 13.8 mph 18.4 mph N/A   Clear
3:34 PM 84.2 °F 86.6 °F 66.2 °F 55% 29.73 in 10.0 mi South 11.5 mph 18.4 mph N/A   Scattered Clouds
3:55 PM 84.2 °F 85.0 °F 62.6 °F 48% 29.72 in 10.0 mi SSW 17.3 mph 23.0 mph N/A   Clear
4:15 PM 84.2 °F 85.0 °F 62.6 °F 48% 29.72 in 10.0 mi South 16.1 mph 19.6 mph N/A   Clear
4:34 PM 87.8 °F 88.5 °F 62.6 °F 43% 29.72 in 10.0 mi SSW 19.6 mph 25.3 mph N/A   Clear
4:55 PM 87.8 °F 88.5 °F 62.6 °F 43% 29.71 in 10.0 mi SSW 13.8 mph 20.7 mph N/A   Clear
5:15 PM 87.8 °F 87.6 °F 60.8 °F 40% 29.71 in 10.0 mi South 18.4 mph - N/A   Clear
5:34 PM 87.8 °F 88.5 °F 62.6 °F 43% 29.70 in 10.0 mi South 16.1 mph 21.9 mph N/A   Clear
5:55 PM 87.8 °F 89.4 °F 64.4 °F 46% 29.70 in 10.0 mi SSW 12.7 mph 20.7 mph N/A   Clear
6:14 PM 87.8 °F 89.4 °F 64.4 °F 46% 29.69 in 10.0 mi SW 11.5 mph - N/A   Clear
6:34 PM 86.0 °F 87.3 °F 64.4 °F 48% 29.69 in 10.0 mi SW 8.1 mph - N/A   Clear
6:55 PM 86.0 °F 87.3 °F 64.4 °F 48% 29.69 in 10.0 mi SW 10.4 mph - N/A   Clear
7:14 PM 86.0 °F 87.3 °F 64.4 °F 48% 29.68 in 10.0 mi SSW 8.1 mph - N/A   Clear
7:34 PM 84.2 °F 86.6 °F 66.2 °F 55% 29.68 in 7.0 mi SSW 4.6 mph - N/A   Clear
7:55 PM 82.4 °F 84.6 °F 66.2 °F 58% 29.68 in 10.0 mi SSW 5.8 mph - N/A   Clear
8:14 PM 82.4 °F 85.4 °F 68.0 °F 62% 29.69 in 10.0 mi SSW 3.5 mph - N/A   Clear
8:34 PM 80.6 °F 83.2 °F 68.0 °F 65% 29.69 in 10.0 mi SSW 4.6 mph - N/A   Clear
8:55 PM 80.6 °F 82.7 °F 66.2 °F 61% 29.69 in 10.0 mi South 5.8 mph - N/A   Clear
9:14 PM 78.8 °F - 66.2 °F 65% 29.69 in 10.0 mi South 3.5 mph - N/A   Clear
9:34 PM 77.0 °F - 66.2 °F 69% 29.69 in 10.0 mi SSW 3.5 mph - N/A   Clear
9:55 PM 73.4 °F - 66.2 °F 78% 29.70 in 10.0 mi SSE 4.6 mph - N/A   Clear
10:14 PM 73.4 °F - 66.2 °F 78% 29.70 in 10.0 mi South 3.5 mph - N/A   Clear
10:34 PM 71.6 °F - 66.2 °F 83% 29.70 in 10.0 mi SSE 8.1 mph - N/A   Clear
10:55 PM 69.8 °F - 64.4 °F 83% 29.70 in 10.0 mi SSE 6.9 mph - N/A   Clear
11:14 PM 68.0 °F - 64.4 °F 88% 29.70 in 10.0 mi South 5.8 mph - N/A   Clear
11:34 PM 69.8 °F - 64.4 °F 83% 29.70 in 10.0 mi South 3.5 mph - N/A   Clear
11:55 PM 66.2 °F - 64.4 °F 94% 29.70 in 10.0 mi SSE 8.1 mph - N/A   Clear